Lamar, CO

3:25 AM MST on November 22, 2019 (GMT -0700)
Lamar Municipal

Weather History for KLAA - September, 2019

Change the Weather History Date:

Friday, September 27, 2019

  Actual Average Record
Temperature  
Mean Temperature 68 °F 62 °F  
Max Temperature 82 °F 79 °F 102 °F (1935)
Min Temperature 53 °F 45 °F 31 °F (1924)
Degree Days  
Heating Degree Days 0 5  
Month to date heating degree days 6 62  
Since 1 July heating degree days 6 67  
Cooling Degree Days 3 2  
Month to date cooling degree days 266 117  
Year to date cooling degree days 1368 1106  
Growing Degree Days 18 (Base 50)    
Moisture  
Dew Point 42 °F    
Average Humidity 44    
Maximum Humidity 64    
Minimum Humidity 23    
Precipitation  
Precipitation 0.00 in 0.03 in 0.99 in (1976)
Month to date precipitation 0.51 1.16  
Year to date precipitation 7.74 13.53  
Sea Level Pressure  
Sea Level Pressure 29.63 in    
Wind  
Wind Speed 12 mph (ENE)    
Max Wind Speed 25 mph    
Max Gust Speed 35 mph    
Visibility 10 miles    
Events      
T = Trace of Precipitation, MM = Missing Value Source: NWS Daily Summary

Daily Weather History Graph

Daily Weather History Graph

Search for Another Location

Airport or City:

Astronomy

Sep. 27, 2019 Rise Set
Actual Time 6:42 AM MDT 6:40 PM MDT
Civil Twilight 6:16 AM MDT 7:06 PM MDT
Nautical Twilight 5:45 AM MDT 7:36 PM MDT
Astronomical Twilight 5:14 AM MDT 8:07 PM MDT
Moon 5:09 AM MDT (9/27) 6:30 PM MDT (9/27)
Length of Visible Light 12h 49m
Length of Day
11h 57m
Waning Crescent, 2% of the Moon is Illuminated
Sep 27
Waning Crescent
Sep 28
New
Oct 5
First Quarter
Oct 13
Full
Oct 21
Last Quarter

Hourly Weather History & Observations

Time (MDT) Temp. Dew Point Humidity Pressure Visibility Wind Dir Wind Speed Gust Speed Precip Events Conditions
12:53 AM 71.1 °F 37.9 °F 30% 29.50 in 10.0 mi SW 16.1 mph - N/A   Clear
1:53 AM 75.0 °F 35.1 °F 23% 29.50 in 10.0 mi WSW 13.8 mph - N/A   Clear
2:53 AM 60.1 °F 39.0 °F 46% 29.53 in 10.0 mi West 8.1 mph - N/A   Clear
3:53 AM 57.0 °F 39.9 °F 53% 29.54 in 10.0 mi Calm Calm - N/A   Clear
4:53 AM 60.1 °F 37.0 °F 42% 29.55 in 10.0 mi SW 6.9 mph - N/A   Clear
5:53 AM 57.0 °F 36.0 °F 45% 29.56 in 10.0 mi SW 3.5 mph - N/A   Clear
6:53 AM 54.0 °F 41.0 °F 62% 29.62 in 10.0 mi Variable 3.5 mph - N/A   Clear
7:53 AM 61.0 °F 44.1 °F 54% 29.66 in 10.0 mi NNE 12.7 mph - N/A   Clear
8:53 AM 63.0 °F 43.0 °F 48% 29.69 in 10.0 mi NE 17.3 mph 23.0 mph N/A   Clear
9:53 AM 66.9 °F 43.0 °F 42% 29.68 in 10.0 mi ENE 16.1 mph - N/A   Clear
10:53 AM 71.1 °F 42.1 °F 35% 29.69 in 10.0 mi ENE 10.4 mph 21.9 mph N/A   Clear
11:53 AM 73.9 °F 42.1 °F 32% 29.67 in 10.0 mi NE 12.7 mph - N/A   Clear
12:53 PM 77.0 °F 42.1 °F 29% 29.64 in 10.0 mi East 11.5 mph - N/A   Clear
1:53 PM 79.0 °F 42.1 °F 27% 29.60 in 10.0 mi ENE 11.5 mph - N/A   Clear
2:53 PM 79.0 °F 42.1 °F 27% 29.62 in 10.0 mi ENE 9.2 mph - N/A   Clear
3:53 PM 81.0 °F 43.0 °F 26% 29.60 in 10.0 mi East 11.5 mph - N/A   Clear
4:53 PM 80.1 °F 43.0 °F 27% 29.60 in 10.0 mi East 12.7 mph - N/A   Clear
5:53 PM 78.1 °F 43.0 °F 29% 29.60 in 10.0 mi East 11.5 mph - N/A   Clear
6:53 PM 71.1 °F 45.0 °F 39% 29.63 in 10.0 mi East 8.1 mph - N/A   Clear
7:53 PM 69.1 °F 46.0 °F 44% 29.65 in 10.0 mi East 11.5 mph - N/A   Clear
8:53 PM 64.9 °F 46.0 °F 50% 29.68 in 10.0 mi ENE 8.1 mph - N/A   Clear
9:53 PM 64.0 °F 45.0 °F 50% 29.70 in 10.0 mi ENE 17.3 mph - N/A   Clear
10:53 PM 62.1 °F 46.0 °F 56% 29.75 in 10.0 mi ENE 18.4 mph 29.9 mph N/A   Clear
11:53 PM 60.1 °F 45.0 °F 57% 29.77 in 10.0 mi ENE 19.6 mph 31.1 mph N/A   Overcast